| time (UTC) | temp C | wind direction | speed KPH | gust KPH | rain 1hr cm | rain 24hr cm | rain mn cm | humidity % | barometer mb |
| 20260507052533 | 8 | 0 | 0.0 | 1.6 | 0.00 | 0.00 | 0.00 | 100 | 1015.9 |
| 20260507052035 | 8 | 0 | 0.0 | 0.0 | 0.00 | 0.00 | 0.00 | 100 | 1015.9 |
| 20260507051543 | 8 | 0 | 0.0 | 0.0 | 0.00 | 0.00 | 0.00 | 100 | 1016.0 |
| 20260507051033 | 8 | 0 | 0.0 | 0.0 | 0.00 | 0.00 | 0.00 | 100 | 1016.0 |
| 20260507050535 | 8 | 0 | 0.0 | 0.0 | 0.00 | 0.00 | 0.00 | 100 | 1016.0 |
| 20260507050050 | 8 | 0 | 0.0 | 0.0 | 0.00 | 0.00 | 0.00 | 100 | 1015.9 |
| 20260507045533 | 8 | 0 | 0.0 | 0.0 | 0.00 | 0.00 | 0.00 | 100 | 1015.9 |
| 20260507045033 | 8 | 0 | 0.0 | 0.0 | 0.00 | 0.00 | 0.00 | 100 | 1015.9 |
| 20260507044552 | 8 | 0 | 0.0 | 0.0 | 0.00 | 0.00 | 0.00 | 100 | 1016.0 |
| 20260507044035 | 8 | 0 | 0.0 | 0.0 | 0.00 | 0.00 | 0.00 | 100 | 1015.8 |
| 20260507043535 | 8 | 0 | 0.0 | 0.0 | 0.00 | 0.00 | 0.00 | 100 | 1015.7 |
| 20260507043042 | 8 | 0 | 0.0 | 0.0 | 0.00 | 0.00 | 0.00 | 100 | 1015.8 |
| 20260507042536 | 8 | 0 | 0.0 | 0.0 | 0.00 | 0.00 | 0.00 | 100 | 1015.8 |
| 20260507042032 | 8 | 0 | 0.0 | 0.0 | 0.00 | 0.00 | 0.00 | 100 | 1015.8 |
| 20260507041555 | 8 | 0 | 0.0 | 0.0 | 0.00 | 0.00 | 0.00 | 100 | 1015.8 |
| 20260507041033 | 8 | 0 | 0.0 | 0.0 | 0.00 | 0.00 | 0.00 | 100 | 1015.8 |
| 20260507040532 | 8 | 0 | 0.0 | 0.0 | 0.00 | 0.00 | 0.00 | 100 | 1015.8 |
| 20260507040042 | 8 | 0 | 0.0 | 0.0 | 0.00 | 0.00 | 0.00 | 100 | 1015.8 |
| 20260507035532 | 8 | 0 | 0.0 | 0.0 | 0.00 | 0.00 | 0.00 | 100 | 1015.7 |
| 20260507035034 | 8 | 0 | 0.0 | 0.0 | 0.00 | 0.00 | 0.00 | 100 | 1015.7 |
| 20260507034544 | 8 | 0 | 0.0 | 0.0 | 0.00 | 0.00 | 0.00 | 100 | 1015.7 |
| 20260507034033 | 8 | 0 | 0.0 | 0.0 | 0.00 | 0.00 | 0.00 | 100 | 1015.6 |
| 20260507033534 | 8 | 0 | 0.0 | 0.0 | 0.00 | 0.00 | 0.00 | 100 | 1015.7 |
| 20260507033043 | 8 | 0 | 0.0 | 0.0 | 0.00 | 0.00 | 0.00 | 100 | 1015.6 |
| 20260507032535 | 8 | 0 | 0.0 | 0.0 | 0.00 | 0.00 | 0.00 | 100 | 1015.6 |
| 20260507032032 | 7 | 0 | 0.0 | 0.0 | 0.00 | 0.00 | 0.00 | 100 | 1015.6 |
| 20260507031543 | 7 | 0 | 0.0 | 0.0 | 0.00 | 0.00 | 0.00 | 100 | 1015.6 |
| 20260507031032 | 7 | 0 | 0.0 | 0.0 | 0.00 | 0.00 | 0.00 | 100 | 1015.6 |
| 20260507030534 | 7 | 0 | 0.0 | 0.0 | 0.00 | 0.00 | 0.00 | 100 | 1015.6 |
| 20260507030043 | 7 | 0 | 0.0 | 0.0 | 0.00 | 0.00 | 0.00 | 100 | 1015.7 |
| 20260507025532 | 7 | 0 | 0.0 | 0.0 | 0.00 | 0.00 | 0.00 | 100 | 1015.6 |
| 20260507025035 | 7 | 0 | 0.0 | 0.0 | 0.00 | 0.00 | 0.00 | 100 | 1015.5 |
| 20260507024541 | 7 | 0 | 0.0 | 0.0 | 0.00 | 0.00 | 0.00 | 100 | 1015.6 |
| 20260507024035 | 7 | 0 | 0.0 | 0.0 | 0.00 | 0.00 | 0.00 | 100 | 1015.6 |
| 20260507023535 | 7 | 0 | 0.0 | 0.0 | 0.00 | 0.00 | 0.00 | 100 | 1015.6 |
| 20260507023041 | 7 | 0 | 0.0 | 0.0 | 0.00 | 0.00 | 0.00 | 100 | 1015.5 |
| 20260507022532 | 7 | 0 | 0.0 | 0.0 | 0.00 | 0.00 | 0.00 | 100 | 1015.5 |
| 20260507022035 | 7 | 0 | 0.0 | 0.0 | 0.00 | 0.00 | 0.00 | 100 | 1015.5 |
| 20260507021541 | 8 | 0 | 0.0 | 0.0 | 0.00 | 0.00 | 0.00 | 100 | 1015.5 |
| 20260507021033 | 8 | 0 | 0.0 | 0.0 | 0.00 | 0.00 | 0.00 | 100 | 1015.5 |
| 20260507020535 | 8 | 0 | 0.0 | 0.0 | 0.00 | 0.00 | 0.00 | 100 | 1015.4 |
| 20260507020059 | 8 | 0 | 0.0 | 0.0 | 0.00 | 0.00 | 0.00 | 100 | 1015.4 |
| 20260507015535 | 8 | 0 | 0.0 | 0.0 | 0.00 | 0.00 | 0.00 | 100 | 1015.3 |
| 20260507015036 | 8 | 0 | 0.0 | 0.0 | 0.00 | 0.00 | 0.00 | 100 | 1015.4 |
| 20260507014616 | 8 | 0 | 0.0 | 0.0 | 0.00 | 0.00 | 0.00 | 100 | 1015.3 |
| 20260507014035 | 8 | 0 | 0.0 | 0.0 | 0.00 | 0.00 | 0.00 | 100 | 1015.3 |
| 20260507013532 | 8 | 0 | 0.0 | 0.0 | 0.00 | 0.00 | 0.00 | 100 | 1015.2 |
| 20260507013047 | 8 | 0 | 0.0 | 0.0 | 0.00 | 0.00 | 0.00 | 100 | 1015.3 |
| 20260507012533 | 8 | 0 | 0.0 | 0.0 | 0.00 | 0.00 | 0.00 | 100 | 1015.2 |
| 20260507012033 | 8 | 0 | 0.0 | 0.0 | 0.00 | 0.00 | 0.00 | 100 | 1015.2 |
| 20260507011554 | 8 | 0 | 0.0 | 0.0 | 0.00 | 0.00 | 0.00 | 100 | 1015.2 |
| 20260507011034 | 8 | 0 | 0.0 | 0.0 | 0.00 | 0.00 | 0.00 | 100 | 1015.2 |
| 20260507010531 | 8 | 0 | 0.0 | 0.0 | 0.00 | 0.00 | 0.00 | 100 | 1015.2 |
| 20260507010046 | 8 | 0 | 0.0 | 0.0 | 0.00 | 0.00 | 0.00 | 100 | 1015.2 |
| 20260507005536 | 8 | 0 | 0.0 | 0.0 | 0.00 | 0.00 | 0.00 | 100 | 1015.2 |
| 20260507005032 | 8 | 0 | 0.0 | 0.0 | 0.00 | 0.00 | 0.00 | 100 | 1015.3 |
| 20260507004544 | 8 | 0 | 0.0 | 0.0 | 0.00 | 0.00 | 0.00 | 100 | 1015.2 |
| 20260507004035 | 8 | 0 | 0.0 | 0.0 | 0.00 | 0.00 | 0.00 | 100 | 1015.2 |
| 20260507003531 | 9 | 0 | 0.0 | 0.0 | 0.00 | 0.00 | 0.00 | 100 | 1015.2 |
| 20260507003043 | 9 | 0 | 0.0 | 0.0 | 0.00 | 0.00 | 0.00 | 100 | 1015.3 |
| 20260507002533 | 9 | 0 | 0.0 | 0.0 | 0.00 | 0.00 | 0.00 | 100 | 1015.3 |
| 20260507002033 | 9 | 0 | 0.0 | 0.0 | 0.00 | 0.00 | 0.00 | 100 | 1015.3 |
| 20260507001558 | 9 | 0 | 0.0 | 0.0 | 0.00 | 0.00 | 0.00 | 100 | 1015.4 |
| 20260507001038 | 9 | 0 | 0.0 | 0.0 | 0.00 | 0.00 | 0.00 | 100 | 1015.3 |
| 20260507000533 | 9 | 0 | 0.0 | 1.6 | 0.00 | 0.00 | 0.00 | 100 | 1015.4 |
| 20260507000054 | 9 | 0 | 0.0 | 4.8 | 0.00 | 0.00 | 0.00 | 100 | 1015.4 |
| 20260506235535 | 9 | 0 | 0.0 | 4.8 | 0.00 | 0.00 | 0.00 | 100 | 1015.5 |
| 20260506235032 | 9 | 0 | 0.0 | 4.8 | 0.00 | 0.00 | 0.00 | 100 | 1015.3 |
| 20260506234554 | 9 | 0 | 0.0 | 4.8 | 0.00 | 0.00 | 0.00 | 100 | 1015.3 |
| 20260506234031 | 9 | 32 | 0.0 | 3.2 | 0.00 | 0.00 | 0.00 | 100 | 1015.3 |
| 20260506233532 | 9 | 0 | 0.0 | 4.8 | 0.00 | 0.00 | 0.00 | 100 | 1015.2 |
| 20260506233048 | 9 | 0 | 0.0 | 4.8 | 0.00 | 0.00 | 0.00 | 100 | 1015.3 |
| 20260506232534 | 9 | 0 | 1.6 | 6.4 | 0.00 | 0.00 | 0.00 | 100 | 1015.2 |
| 20260506232035 | 9 | 22 | 1.6 | 6.4 | 0.00 | 0.00 | 0.00 | 100 | 1015.3 |
| 20260506231544 | 9 | 27 | 1.6 | 6.4 | 0.00 | 0.00 | 0.00 | 100 | 1015.1 |
| 20260506231034 | 9 | 51 | 0.0 | 1.6 | 0.00 | 0.00 | 0.00 | 100 | 1015.2 |
| 20260506230531 | 9 | 0 | 0.0 | 0.0 | 0.00 | 0.00 | 0.00 | 100 | 1015.1 |
| 20260506230052 | 9 | 0 | 0.0 | 0.0 | 0.00 | 0.00 | 0.00 | 100 | 1015.2 |
| 20260506225536 | 9 | 0 | 0.0 | 0.0 | 0.00 | 0.00 | 0.00 | 100 | 1015.2 |
| 20260506225031 | 10 | 0 | 0.0 | 0.0 | 0.00 | 0.00 | 0.00 | 100 | 1015.1 |
| 20260506224540 | 10 | 0 | 0.0 | 0.0 | 0.00 | 0.00 | 0.00 | 100 | 1015.2 |
| 20260506224035 | 10 | 0 | 0.0 | 0.0 | 0.00 | 0.00 | 0.00 | 100 | 1015.2 |
| 20260506223535 | 10 | 0 | 0.0 | 0.0 | 0.00 | 0.00 | 0.00 | 100 | 1015.3 |
| 20260506223042 | 9 | 0 | 0.0 | 0.0 | 0.00 | 0.00 | 0.00 | 100 | 1015.3 |
| 20260506222536 | 9 | 0 | 0.0 | 0.0 | 0.00 | 0.00 | 0.00 | 100 | 1015.1 |
| 20260506222033 | 9 | 0 | 0.0 | 0.0 | 0.00 | 0.00 | 0.00 | 100 | 1015.1 |
| 20260506221556 | 9 | 0 | 0.0 | 0.0 | 0.00 | 0.00 | 0.00 | 100 | 1015.1 |
| 20260506221036 | 9 | 0 | 0.0 | 0.0 | 0.00 | 0.00 | 0.00 | 100 | 1015.0 |
| 20260506220532 | 9 | 0 | 0.0 | 0.0 | 0.00 | 0.00 | 0.00 | 100 | 1015.1 |
| 20260506220049 | 9 | 0 | 0.0 | 0.0 | 0.00 | 0.00 | 0.00 | 100 | 1015.0 |
| 20260506215534 | 9 | 0 | 0.0 | 0.0 | 0.00 | 0.00 | 0.00 | 100 | 1015.0 |
| 20260506215033 | 9 | 0 | 0.0 | 0.0 | 0.00 | 0.00 | 0.00 | 100 | 1014.9 |
| 20260506214541 | 9 | 0 | 0.0 | 0.0 | 0.00 | 0.00 | 0.00 | 100 | 1014.9 |
| 20260506214036 | 9 | 0 | 0.0 | 0.0 | 0.00 | 0.00 | 0.00 | 100 | 1015.0 |
| 20260506213539 | 9 | 0 | 0.0 | 0.0 | 0.00 | 0.00 | 0.00 | 100 | 1015.0 |
| 20260506213048 | 9 | 0 | 0.0 | 0.0 | 0.00 | 0.00 | 0.00 | 100 | 1014.9 |
| 20260506212532 | 9 | 0 | 0.0 | 0.0 | 0.00 | 0.00 | 0.00 | 100 | 1014.9 |
| 20260506212039 | 9 | 0 | 0.0 | 0.0 | 0.00 | 0.00 | 0.00 | 100 | 1014.7 |
| 20260506211552 | 9 | 0 | 0.0 | 0.0 | 0.00 | 0.00 | 0.00 | 100 | 1014.8 |
| 20260506211035 | 10 | 0 | 0.0 | 0.0 | 0.00 | 0.00 | 0.00 | 100 | 1014.8 |
| 20260506210531 | 10 | 0 | 0.0 | 0.0 | 0.00 | 0.00 | 0.00 | 100 | 1014.7 |
| 20260506210045 | 10 | 0 | 0.0 | 0.0 | 0.00 | 0.00 | 0.00 | 100 | 1014.7 |
| 20260506205534 | 10 | 0 | 0.0 | 0.0 | 0.00 | 0.00 | 0.00 | 100 | 1014.7 |
| 20260506205032 | 10 | 0 | 0.0 | 0.0 | 0.00 | 0.00 | 0.00 | 100 | 1014.7 |
| 20260506204556 | 10 | 0 | 0.0 | 0.0 | 0.00 | 0.00 | 0.00 | 100 | 1014.8 |
| 20260506204031 | 10 | 0 | 0.0 | 0.0 | 0.00 | 0.00 | 0.00 | 100 | 1014.7 |
| 20260506203536 | 10 | 0 | 0.0 | 0.0 | 0.00 | 0.00 | 0.00 | 100 | 1014.7 |
| 20260506203045 | 10 | 0 | 0.0 | 0.0 | 0.00 | 0.00 | 0.00 | 100 | 1014.7 |
| 20260506202533 | 10 | 0 | 0.0 | 0.0 | 0.00 | 0.00 | 0.00 | 100 | 1014.7 |
| 20260506202035 | 10 | 0 | 0.0 | 0.0 | 0.00 | 0.00 | 0.00 | 100 | 1014.6 |
| 20260506201545 | 10 | 0 | 0.0 | 0.0 | 0.00 | 0.00 | 0.00 | 100 | 1014.6 |
| 20260506201031 | 10 | 0 | 0.0 | 0.0 | 0.00 | 0.00 | 0.00 | 100 | 1014.7 |
| 20260506200534 | 10 | 0 | 0.0 | 0.0 | 0.00 | 0.00 | 0.00 | 100 | 1014.7 |
| 20260506200045 | 10 | 0 | 0.0 | 0.0 | 0.00 | 0.00 | 0.00 | 100 | 1014.6 |
| 20260506195533 | 10 | 0 | 0.0 | 0.0 | 0.00 | 0.00 | 0.00 | 100 | 1014.6 |
| 20260506195032 | 10 | 0 | 0.0 | 0.0 | 0.00 | 0.00 | 0.00 | 100 | 1014.5 |
| 20260506194544 | 10 | 0 | 0.0 | 0.0 | 0.00 | 0.00 | 0.00 | 100 | 1014.5 |
| 20260506194034 | 10 | 0 | 0.0 | 1.6 | 0.00 | 0.00 | 0.00 | 100 | 1014.5 |
| 20260506193531 | 10 | 0 | 0.0 | 1.6 | 0.00 | 0.00 | 0.00 | 100 | 1014.4 |
| 20260506193049 | 10 | 0 | 0.0 | 1.6 | 0.00 | 0.00 | 0.00 | 100 | 1014.2 |
| 20260506192532 | 10 | 0 | 0.0 | 1.6 | 0.00 | 0.00 | 0.00 | 100 | 1014.3 |
| 20260506192032 | 10 | 0 | 0.0 | 1.6 | 0.00 | 0.00 | 0.00 | 100 | 1014.3 |
| 20260506191543 | 10 | 0 | 0.0 | 1.6 | 0.00 | 0.00 | 0.00 | 100 | 1014.2 |
| 20260506191033 | 10 | 0 | 0.0 | 4.8 | 0.00 | 0.00 | 0.00 | 100 | 1014.2 |
| 20260506190531 | 10 | 0 | 0.0 | 4.8 | 0.00 | 0.00 | 0.00 | 100 | 1014.2 |
| 20260506190042 | 10 | 58 | 0.0 | 4.8 | 0.00 | 0.00 | 0.00 | 100 | 1014.0 |
| 20260506185531 | 10 | 15 | 1.6 | 6.4 | 0.00 | 0.00 | 0.00 | 100 | 1014.0 |
| 20260506185031 | 11 | 0 | 0.0 | 6.4 | 0.00 | 0.00 | 0.00 | 100 | 1014.0 |
| 20260506184541 | 11 | 0 | 0.0 | 8.0 | 0.00 | 0.00 | 0.00 | 100 | 1013.9 |
| 20260506184035 | 11 | 41 | 1.6 | 8.0 | 0.00 | 0.00 | 0.00 | 100 | 1014.0 |
| 20260506183532 | 11 | 50 | 3.2 | 8.0 | 0.00 | 0.00 | 0.00 | 100 | 1013.9 |
| 20260506183037 | 11 | 92 | 1.6 | 8.0 | 0.00 | 0.00 | 0.00 | 100 | 1013.9 |
| 20260506182532 | 11 | 58 | 3.2 | 8.0 | 0.00 | 0.00 | 0.00 | 100 | 1013.8 |
| 20260506182032 | 11 | 42 | 1.6 | 4.8 | 0.00 | 0.00 | 0.00 | 100 | 1013.8 |
| 20260506181556 | 11 | 53 | 0.0 | 8.0 | 0.00 | 0.00 | 0.00 | 100 | 1013.7 |
| 20260506181033 | 11 | 55 | 1.6 | 8.0 | 0.00 | 0.00 | 0.00 | 100 | 1013.6 |
| 20260506180532 | 11 | 53 | 3.2 | 8.0 | 0.00 | 0.00 | 0.00 | 100 | 1013.5 |
| 20260506180044 | 11 | 36 | 1.6 | 6.4 | 0.00 | 0.00 | 0.00 | 100 | 1013.5 |
| 20260506175531 | 11 | 102 | 1.6 | 12.9 | 0.00 | 0.00 | 0.00 | 100 | 1013.5 |
| 20260506175031 | 11 | 39 | 3.2 | 12.9 | 0.00 | 0.00 | 0.00 | 100 | 1013.4 |
| 20260506174542 | 11 | 5 | 3.2 | 9.7 | 0.00 | 0.00 | 0.00 | 100 | 1013.4 |
| 20260506174035 | 11 | 49 | 3.2 | 9.7 | 0.00 | 0.00 | 0.00 | 100 | 1013.3 |
| 20260506173534 | 11 | 23 | 3.2 | 9.7 | 0.00 | 0.00 | 0.00 | 100 | 1013.4 |
| 20260506173104 | 11 | 17 | 3.2 | 17.7 | 0.00 | 0.00 | 0.00 | 100 | 1013.3 |
| 20260506172535 | 11 | 61 | 6.4 | 17.7 | 0.00 | 0.00 | 0.00 | 100 | 1013.2 |
| 20260506172035 | 11 | 5 | 3.2 | 16.1 | 0.00 | 0.00 | 0.00 | 100 | 1013.2 |
| 20260506171542 | 11 | 11 | 4.8 | 16.1 | 0.00 | 0.00 | 0.00 | 100 | 1013.2 |
| 20260506171035 | 11 | 352 | 4.8 | 16.1 | 0.00 | 0.00 | 0.00 | 100 | 1013.1 |
| 20260506170535 | 11 | 37 | 3.2 | 16.1 | 0.00 | 0.00 | 0.00 | 100 | 1013.0 |
| 20260506170051 | 11 | 71 | 3.2 | 9.7 | 0.00 | 0.00 | 0.00 | 100 | 1013.1 |
| 20260506165533 | 11 | 10 | 3.2 | 9.7 | 0.00 | 0.00 | 0.00 | 100 | 1013.1 |
| 20260506165034 | 11 | 19 | 1.6 | 9.7 | 0.00 | 0.00 | 0.00 | 100 | 1013.0 |
| 20260506164543 | 11 | 48 | 1.6 | 8.0 | 0.00 | 0.00 | 0.00 | 100 | 1013.0 |
| 20260506164034 | 11 | 16 | 1.6 | 8.0 | 0.00 | 0.00 | 0.00 | 100 | 1013.0 |
| 20260506163531 | 11 | 11 | 1.6 | 8.0 | 0.00 | 0.00 | 0.00 | 100 | 1013.1 |
| 20260506163053 | 11 | 15 | 3.2 | 9.7 | 0.00 | 0.00 | 0.00 | 100 | 1013.2 |
| 20260506162537 | 11 | 5 | 3.2 | 9.7 | 0.00 | 0.00 | 0.00 | 100 | 1013.2 |
| 20260506162031 | 11 | 32 | 3.2 | 12.9 | 0.00 | 0.00 | 0.00 | 100 | 1013.2 |
| 20260506161542 | 11 | 5 | 4.8 | 12.9 | 0.00 | 0.00 | 0.00 | 100 | 1013.0 |
| 20260506161035 | 11 | 0 | 3.2 | 12.9 | 0.00 | 0.00 | 0.00 | 100 | 1013.1 |
| 20260506160532 | 11 | 39 | 3.2 | 12.9 | 0.00 | 0.00 | 0.00 | 100 | 1013.2 |
| 20260506160042 | 12 | 34 | 6.4 | 14.5 | 0.00 | 0.00 | 0.00 | 100 | 1013.2 |
| 20260506155531 | 12 | 360 | 3.2 | 19.3 | 0.00 | 0.00 | 0.00 | 100 | 1013.2 |
| 20260506155033 | 12 | 10 | 8.0 | 19.3 | 0.00 | 0.00 | 0.00 | 100 | 1013.2 |
| 20260506154606 | 12 | 360 | 4.8 | 16.1 | 0.00 | 0.00 | 0.00 | 100 | 1013.1 |
| 20260506154036 | 12 | 39 | 6.4 | 16.1 | 0.00 | 0.00 | 0.00 | 100 | 1013.2 |
| 20260506153532 | 12 | 5 | 6.4 | 16.1 | 0.00 | 0.00 | 0.00 | 100 | 1013.1 |
| 20260506153043 | 12 | 79 | 3.2 | 16.1 | 0.00 | 0.00 | 0.00 | 100 | 1013.2 |
| 20260506152532 | 12 | 22 | 4.8 | 16.1 | 0.00 | 0.00 | 0.00 | 100 | 1013.2 |
| 20260506152033 | 12 | 28 | 3.2 | 16.1 | 0.00 | 0.00 | 0.00 | 100 | 1013.1 |
| 20260506151543 | 12 | 360 | 4.8 | 16.1 | 0.00 | 0.00 | 0.00 | 100 | 1013.1 |
| 20260506151034 | 12 | 350 | 6.4 | 16.1 | 0.00 | 0.00 | 0.00 | 100 | 1013.0 |
| 20260506150535 | 12 | 336 | 4.8 | 14.5 | 0.00 | 0.00 | 0.00 | 100 | 1013.0 |
| 20260506150043 | 12 | 13 | 4.8 | 14.5 | 0.00 | 0.00 | 0.00 | 100 | 1013.2 |
| 20260506145536 | 12 | 40 | 4.8 | 14.5 | 0.00 | 0.00 | 0.00 | 100 | 1013.1 |
| 20260506145033 | 12 | 63 | 3.2 | 16.1 | 0.00 | 0.00 | 0.00 | 100 | 1013.2 |
| 20260506144553 | 12 | 61 | 4.8 | 16.1 | 0.00 | 0.00 | 0.00 | 100 | 1013.1 |
| 20260506144033 | 12 | 26 | 3.2 | 16.1 | 0.00 | 0.00 | 0.00 | 100 | 1013.0 |
| 20260506143533 | 12 | 94 | 4.8 | 16.1 | 0.00 | 0.00 | 0.00 | 100 | 1013.1 |
| 20260506143044 | 12 | 360 | 6.4 | 17.7 | 0.00 | 0.00 | 0.00 | 100 | 1013.0 |
| 20260506142533 | 12 | 0 | 4.8 | 17.7 | 0.00 | 0.00 | 0.00 | 100 | 1013.1 |
| 20260506142031 | 12 | 14 | 8.0 | 17.7 | 0.00 | 0.00 | 0.00 | 100 | 1013.1 |
| 20260506141545 | 12 | 48 | 6.4 | 16.1 | 0.00 | 0.00 | 0.00 | 100 | 1013.0 |
| 20260506141032 | 12 | 30 | 6.4 | 16.1 | 0.00 | 0.00 | 0.00 | 100 | 1013.0 |
| 20260506140532 | 12 | 30 | 4.8 | 16.1 | 0.00 | 0.00 | 0.00 | 100 | 1013.1 |
| 20260506140043 | 12 | 29 | 3.2 | 16.1 | 0.00 | 0.00 | 0.00 | 100 | 1013.1 |
| 20260506135531 | 12 | 5 | 4.8 | 16.1 | 0.00 | 0.00 | 0.00 | 100 | 1013.1 |
| 20260506135031 | 12 | 16 | 4.8 | 17.7 | 0.00 | 0.00 | 0.00 | 100 | 1013.1 |
| 20260506134543 | 12 | 36 | 6.4 | 17.7 | 0.00 | 0.00 | 0.00 | 100 | 1013.2 |
| 20260506134031 | 12 | 351 | 4.8 | 14.5 | 0.00 | 0.00 | 0.00 | 100 | 1013.0 |
| 20260506133531 | 12 | 15 | 4.8 | 12.9 | 0.00 | 0.00 | 0.00 | 100 | 1013.1 |
| 20260506133101 | 12 | 39 | 4.8 | 17.7 | 0.00 | 0.00 | 0.00 | 100 | 1013.2 |
| 20260506132532 | 12 | 88 | 6.4 | 17.7 | 0.00 | 0.00 | 0.00 | 100 | 1013.2 |
| 20260506132037 | 12 | 5 | 3.2 | 16.1 | 0.00 | 0.00 | 0.00 | 100 | 1013.1 |
| 20260506131545 | 12 | 13 | 6.4 | 17.7 | 0.00 | 0.00 | 0.00 | 100 | 1013.2 |
| 20260506131034 | 12 | 55 | 4.8 | 17.7 | 0.00 | 0.00 | 0.00 | 100 | 1013.1 |
| 20260506130533 | 12 | 19 | 8.0 | 17.7 | 0.00 | 0.00 | 0.00 | 100 | 1013.2 |
| 20260506130044 | 13 | 26 | 6.4 | 16.1 | 0.00 | 0.00 | 0.00 | 100 | 1013.2 |
| 20260506125531 | 13 | 351 | 4.8 | 19.3 | 0.00 | 0.00 | 0.00 | 100 | 1013.1 |
| 20260506125031 | 13 | 99 | 4.8 | 19.3 | 0.00 | 0.00 | 0.00 | 100 | 1013.0 |
| 20260506124543 | 13 | 360 | 1.6 | 17.7 | 0.00 | 0.00 | 0.00 | 100 | 1013.0 |
| 20260506124031 | 13 | 19 | 3.2 | 17.7 | 0.00 | 0.00 | 0.00 | 100 | 1013.0 |
| 20260506123532 | 13 | 11 | 4.8 | 17.7 | 0.00 | 0.00 | 0.00 | 100 | 1013.0 |
| 20260506123046 | 12 | 11 | 4.8 | 17.7 | 0.00 | 0.00 | 0.00 | 100 | 1013.0 |
| 20260506122534 | 13 | 352 | 6.4 | 17.7 | 0.00 | 0.00 | 0.00 | 100 | 1013.0 |
| 20260506122032 | 13 | 30 | 4.8 | 14.5 | 0.00 | 0.00 | 0.00 | 100 | 1013.0 |
| 20260506121548 | 12 | 208 | 6.4 | 20.9 | 0.00 | 0.00 | 0.00 | 100 | 1013.0 |
| 20260506121034 | 13 | 157 | 4.8 | 20.9 | 0.00 | 0.00 | 0.00 | 100 | 1013.0 |
| 20260506120532 | 13 | 12 | 3.2 | 16.1 | 0.00 | 0.00 | 0.00 | 100 | 1012.9 |
| 20260506120045 | 13 | 84 | 3.2 | 17.7 | 0.00 | 0.00 | 0.00 | 100 | 1013.0 |
| 20260506115531 | 13 | 28 | 6.4 | 17.7 | 0.00 | 0.00 | 0.00 | 100 | 1013.1 |
| 20260506115031 | 13 | 53 | 4.8 | 17.7 | 0.00 | 0.00 | 0.00 | 100 | 1013.0 |
| 20260506114548 | 12 | 21 | 3.2 | 17.7 | 0.00 | 0.00 | 0.00 | 100 | 1013.0 |
| 20260506114032 | 13 | 41 | 4.8 | 17.7 | 0.00 | 0.00 | 0.00 | 100 | 1013.1 |
| 20260506113531 | 12 | 28 | 6.4 | 17.7 | 0.00 | 0.00 | 0.00 | 100 | 1013.1 |
| 20260506113042 | 12 | 80 | 6.4 | 16.1 | 0.00 | 0.00 | 0.00 | 100 | 1013.0 |
| 20260506112531 | 12 | 347 | 4.8 | 19.3 | 0.00 | 0.00 | 0.00 | 100 | 1013.0 |
| 20260506112032 | 12 | 24 | 8.0 | 19.3 | 0.00 | 0.00 | 0.00 | 100 | 1013.0 |
| 20260506111543 | 12 | 338 | 6.4 | 17.7 | 0.00 | 0.00 | 0.00 | 100 | 1013.0 |
| 20260506111031 | 12 | 347 | 8.0 | 17.7 | 0.00 | 0.00 | 0.00 | 100 | 1013.0 |
| 20260506110532 | 12 | 5 | 6.4 | 17.7 | 0.00 | 0.00 | 0.00 | 100 | 1013.0 |
| 20260506110048 | 12 | 47 | 8.0 | 22.5 | 0.00 | 0.00 | 0.00 | 100 | 1013.0 |
| 20260506105532 | 12 | 5 | 6.4 | 22.5 | 0.00 | 0.00 | 0.00 | 100 | 1013.0 |
| 20260506105033 | 12 | 20 | 6.4 | 17.7 | 0.00 | 0.00 | 0.00 | 100 | 1013.0 |
| 20260506104608 | 12 | 62 | 6.4 | 25.7 | 0.00 | 0.00 | 0.00 | 100 | 1013.1 |
| 20260506104034 | 11 | 126 | 6.4 | 25.7 | 0.00 | 0.00 | 0.00 | 100 | 1013.1 |
| 20260506103533 | 11 | 352 | 8.0 | 22.5 | 0.00 | 0.00 | 0.00 | 100 | 1013.0 |
| 20260506103045 | 11 | 34 | 6.4 | 24.1 | 0.00 | 0.00 | 0.00 | 100 | 1013.0 |
| 20260506102535 | 11 | 18 | 9.7 | 24.1 | 0.00 | 0.00 | 0.00 | 100 | 1013.2 |
| 20260506102032 | 11 | 5 | 8.0 | 25.7 | 0.00 | 0.00 | 0.00 | 100 | 1013.1 |
| 20260506101548 | 11 | 352 | 6.4 | 25.7 | 0.00 | 0.00 | 0.00 | 100 | 1012.9 |
| 20260506101034 | 11 | 360 | 8.0 | 25.7 | 0.00 | 0.00 | 0.00 | 100 | 1012.9 |
| 20260506100531 | 12 | 107 | 9.7 | 20.9 | 0.00 | 0.00 | 0.00 | 100 | 1013.0 |
| 20260506100045 | 11 | 360 | 8.0 | 20.9 | 0.00 | 0.00 | 0.00 | 100 | 1013.0 |
| 20260506095531 | 11 | 352 | 4.8 | 24.1 | 0.00 | 0.00 | 0.00 | 100 | 1013.0 |
| 20260506095032 | 11 | 5 | 6.4 | 24.1 | 0.00 | 0.00 | 0.00 | 100 | 1013.0 |
| 20260506094540 | 11 | 360 | 11.3 | 24.1 | 0.00 | 0.00 | 0.00 | 100 | 1012.9 |
| 20260506094032 | 11 | 20 | 8.0 | 25.7 | 0.00 | 0.00 | 0.00 | 100 | 1013.0 |
| 20260506093533 | 11 | 34 | 9.7 | 25.7 | 0.00 | 0.00 | 0.00 | 100 | 1013.0 |
| 20260506093037 | 11 | 360 | 6.4 | 20.9 | 0.00 | 0.00 | 0.00 | 100 | 1013.0 |
| 20260506092532 | 11 | 360 | 6.4 | 25.7 | 0.00 | 0.00 | 0.00 | 100 | 1013.0 |
| 20260506092033 | 11 | 352 | 9.7 | 25.7 | 0.00 | 0.00 | 0.00 | 100 | 1013.0 |
| 20260506091536 | 11 | 28 | 4.8 | 19.3 | 0.00 | 0.00 | 0.00 | 100 | 1012.9 |
| 20260506091035 | 11 | 352 | 6.4 | 19.3 | 0.00 | 0.00 | 0.00 | 100 | 1012.9 |
| 20260506090533 | 11 | 25 | 8.0 | 17.7 | 0.00 | 0.00 | 0.00 | 100 | 1012.9 |
| 20260506090047 | 10 | 19 | 8.0 | 19.3 | 0.00 | 0.00 | 0.00 | 100 | 1012.8 |
| 20260506085532 | 10 | 360 | 6.4 | 20.9 | 0.00 | 0.00 | 0.00 | 100 | 1012.9 |
| 20260506085031 | 10 | 32 | 8.0 | 20.9 | 0.00 | 0.00 | 0.00 | 100 | 1012.9 |
| 20260506084544 | 10 | 14 | 9.7 | 20.9 | 0.00 | 0.00 | 0.00 | 100 | 1013.0 |
| 20260506084033 | 10 | 36 | 8.0 | 17.7 | 0.00 | 0.00 | 0.00 | 100 | 1012.9 |
| 20260506083532 | 10 | 44 | 6.4 | 19.3 | 0.00 | 0.00 | 0.00 | 100 | 1012.8 |
| 20260506083043 | 10 | 49 | 6.4 | 19.3 | 0.00 | 0.00 | 0.00 | 100 | 1012.9 |
| 20260506082533 | 9 | 52 | 4.8 | 19.3 | 0.00 | 0.00 | 0.00 | 100 | 1013.0 |
| 20260506082032 | 9 | 67 | 8.0 | 22.5 | 0.00 | 0.00 | 0.00 | 100 | 1012.9 |
| 20260506081537 | 9 | 62 | 6.4 | 22.5 | 0.00 | 0.00 | 0.00 | 100 | 1012.9 |
| 20260506081032 | 9 | 352 | 8.0 | 22.5 | 0.00 | 0.00 | 0.00 | 100 | 1012.9 |
| 20260506080533 | 9 | 32 | 4.8 | 17.7 | 0.00 | 0.00 | 0.00 | 100 | 1013.0 |
| 20260506073042 | 10 | 327 | 4.8 | 16.1 | 0.00 | 0.00 | 0.00 | 100 | 1012.8 |
| 20260506072531 | 9 | 349 | 6.4 | 17.7 | 0.00 | 0.00 | 0.00 | 100 | 1012.9 |
| 20260506072032 | 9 | 360 | 6.4 | 17.7 | 0.00 | 0.00 | 0.00 | 100 | 1012.8 |
| 20260506071540 | 9 | 352 | 4.8 | 16.1 | 0.00 | 0.00 | 0.00 | 100 | 1012.9 |
| 20260506071032 | 9 | 24 | 4.8 | 16.1 | 0.00 | 0.00 | 0.00 | 100 | 1012.8 |
| 20260506070532 | 9 | 18 | 3.2 | 12.9 | 0.00 | 0.00 | 0.00 | 100 | 1012.7 |
| 20260506062032 | 7 | 32 | 8.0 | 17.7 | 0.00 | 0.00 | 0.00 | 100 | 1012.6 |
| 20260506061543 | 7 | 18 | 6.4 | 16.1 | 0.00 | 0.00 | 0.00 | 100 | 1012.6 |
| 20260506061034 | 7 | 5 | 6.4 | 16.1 | 0.00 | 0.00 | 0.00 | 100 | 1012.6 |
| 20260506060535 | 7 | 33 | 4.8 | 14.5 | 0.00 | 0.00 | 0.00 | 100 | 1012.6 |